Voltar ao catálogo

STARLINK-32264

AtivoComunicaçõesVLEO
NORAD 61642·PAYLOAD·🇺🇸 United States

Lançado Oct 23, 2024 de Cape Canaveral Space Force Station

Loading…

Próximas Passagens (próximas 24 horas)

TLE

AtualizadoSource: CelesTrak SupGP

Época: Sep 15, 2026, 03:49 UTC

1 61642C 24191X   26258.15951389  .00159220  00000+0  90768-3 0  2589
2 61642  42.9835 121.0018 0027484 247.2696 297.7588 15.77297209    12

Acompanhe STARLINK-32264 em tempo real com AllMySat

Download on the App Store